{"data":{"norad_id":65231,"intl_designator":"2025-178D","name":"HULIANWANG DIGUI-71","alt_names":[],"object_type":"PAYLOAD","status":"ACTIVE","operator":null,"country":"PRC","launch_date":"2025-08-17","launch_site_code":"TAISC","launch_vehicle":null,"mission":null,"orbit_class":"UNKNOWN","rcs_meters":null,"size_class":null,"mass_kg":null,"dimensions":null,"purposes":[],"wikipedia_slug":null,"has_3d_model":false,"image_url":null,"decayed_at":null,"tle_current":{"epoch":"2026-05-25T03:23:18.182688Z","epoch_age_seconds":62918,"freshness":"FRESH","line1":"1 65231U 25178D   26145.14118267  .00000070  00000+0  12790-3 0  9996","line2":"2 65231  86.5019  21.3352 0001675  87.5861 272.5464 13.24411657 37260","mean_motion":13.24411657,"eccentricity":0.0001675,"inclination_deg":86.5019,"raan_deg":21.3352,"arg_perigee_deg":87.5861,"mean_anomaly_deg":272.5464,"bstar":0.0001279,"rev_number":3726,"period_min":108.72752383212,"perigee_km":1166.6519277411,"apogee_km":1169.1798554598,"semimajor_km":7546.0528916005,"source":"CELESTRAK","updated_at":"2026-05-25T13:38:05.253363Z"}}}